Flag for Switzerland Weather past 2 weeks in Bern, Bern, Switzerland

Now
36 °F

Light rain. Partly cloudy.


Feels Like: 31 °F
Forecast: 29 / 38 °F
Wind: 6 mph from West

Location: Bern / Belp

Current Time: Jan 29, 2015 at 7:49:10 AM

Latest Report: Jan 29, 2015 at 7:20 AM


Visibility: 6 mi

Pressure: 29.59 "Hg

Humidity: 87%

Dew point: 32 °F

Location of BernLocation

Historic Weather in Bern — Graph

°F

Bern temperature yesterday

Maximum temperature yesterday: 36 °F (at 1:50 PM)
Minimum temperature yesterday: 19 °F (at 7:20 AM)
Average temperature yesterday: 30 °F

Past Weeks' High & Low Weather Summary

 TemperatureHumidityPressure
High46 °F (Jan 14, 12:50 PM)100% (Jan 14, 10:20 PM)30.39 "Hg (Jan 14, 10:20 PM)
Low19 °F (Jan 28, 7:20 AM)57% (Jan 15, 2:20 PM)29.62 "Hg (Jan 29, 2:20 AM)
Average33 °F88%29.99 "Hg
* Reported Jan 14 6:20 AM — Jan 29 6:50 AM, Bern, Weather by CustomWeather, © 2014

Note: Actual official high and low records may vary slightly from our data, if they occured in-between our weather recording intervals... More about our weather records

Advertising

Bern weather history for previous 24 hours

 ConditionsComfort  
Time TempWeatherWind HumidityBarometerVisibility
6:50 AM
Jan 29
36 °FLight snow. Partly cloudy.5 mph87%29.62 "Hg6 mi
6:20 AM34 °FLight snow. Partly cloudy.8 mph93%29.62 "Hg4 mi
5:50 AM36 °FLight snow. Partly cloudy.10 mph87%29.62 "Hg6 mi
5:20 AM36 °FLight snow. Partly cloudy.7 mph87%29.62 "HgN/A
4:20 AM34 °FLight snow. Partly cloudy.9 mph93%29.62 "Hg2 mi
3:50 AM34 °FSnow. Partly cloudy.14 mph93%29.65 "Hg1 mi
3:20 AM43 °FSprinkles. Passing clouds.10 mph71%29.62 "HgN/A
2:50 AM37 °FPassing clouds.3 mph87%29.62 "HgN/A
2:20 AM34 °FSnow flurries. Passing clouds.2 mph87%29.62 "HgN/A
1:50 AM34 °FSnow flurries. Passing clouds.1 mph87%29.65 "HgN/A
1:20 AM32 °FPassing clouds.3 mph93%29.65 "HgN/A
12:50 AM32 °FPassing clouds.3 mph87%29.65 "HgN/A
12:20 AM32 °FMostly cloudy.1 mph93%29.68 "HgN/A
11:50 PM
Jan 28
32 °FPassing clouds.5 mph93%29.71 "HgN/A
11:20 PM32 °FPartly cloudy.2 mph87%29.71 "HgN/A
10:50 PM32 °FSnow flurries. Partly cloudy.2 mph87%29.74 "HgN/A
10:20 PM32 °FPartly cloudy.3 mph87%29.77 "HgN/A
9:50 PM32 °FPassing clouds.1 mph87%29.77 "HgN/A
9:20 PM32 °FPassing clouds.2 mph87%29.80 "HgN/A
8:50 PM32 °FPassing clouds.3 mph80%29.83 "HgN/A
8:20 PM32 °FPassing clouds.7 mph80%29.83 "HgN/A
7:50 PM32 °FPassing clouds.7 mph80%29.86 "HgN/A
7:20 PM32 °FPartly cloudy.9 mph75%29.89 "HgN/A
6:50 PM34 °FPassing clouds.6 mph75%29.89 "HgN/A
6:20 PM36 °FClear.6 mph70%29.89 "Hg10 mi
5:50 PM36 °FClear.15 mph70%29.92 "Hg10 mi
5:20 PM34 °FPassing clouds.6 mph75%29.95 "HgN/A
4:50 PM32 °FOvercast.9 mph75%29.95 "HgN/A
4:20 PM36 °FPassing clouds.5 mph60%29.95 "HgN/A
3:50 PM36 °FSunny.7 mph60%29.95 "Hg10 mi
3:20 PM36 °FPartly sunny.7 mph65%29.98 "HgN/A
2:50 PM36 °FPartly sunny.2 mph65%30.01 "HgN/A
2:20 PM36 °FBroken clouds.2 mph65%30.04 "HgN/A
1:50 PM36 °FPartly sunny.3 mph65%30.04 "HgN/A
1:20 PM34 °FPartly sunny.6 mph70%30.07 "HgN/A
12:50 PM34 °FPartly sunny.7 mph65%30.09 "HgN/A
12:20 PM32 °FPartly sunny.9 mph69%30.09 "HgN/A
11:50 AM32 °FPartly sunny.9 mph69%30.12 "HgN/A
11:20 AM32 °FPartly sunny.1 mph75%30.12 "HgN/A
10:50 AM30 °FPartly sunny.1 mph75%30.15 "HgN/A
10:20 AM27 °FPartly sunny.5 mph86%30.15 "HgN/A
9:50 AM25 °FScattered clouds.7 mph93%30.15 "HgN/A
9:20 AM23 °FScattered clouds.6 mph93%30.15 "HgN/A
8:50 AM21 °FScattered clouds.8 mph93%30.15 "HgN/A
8:20 AM19 °FScattered clouds.1 mph93%30.15 "HgN/A
7:50 AM21 °FCold.2 mph100%30.15 "HgN/A
7:20 AM19 °FPassing clouds.3 mph93%30.15 "HgN/A
Weather by CustomWeather, © 2014

See weather overviewHow to use our weather pages